Regional Weather Roundup
Issued by NWS Newport/Morehead, NC

Current Version | Previous Version | Graphics & Text | Print | Product List | Glossary Off
Versions: 1 2 3 4 5 6 7 8 9 10 11 12 13 14 15 16 17 18 19 20 21 22 23 24 25 26 27 28 29 30 31 32 33 34 35 36 37 38 39 40 41 42 43 44 45 46 47 48 49 50
000 ASUS42 KMHX 020725 RWRMHX WEATHER ROUNDUP FOR EASTERN NORTH CAROLINA NATIONAL WEATHER SERVICE NEWPORT/MOREHEAD CITY NC 300 AM EDT WED SEP 02 2015 NOTE: "FAIR" INDICATES FEW OR NO CLOUDS BELOW 12,000 FEET WITH NO SIGNIFICANT WEATHER AND/OR OBSTRUCTIONS TO VISIBILITY NCZ015>017-031-032-045>047-102-103-020800- NORTH COAST CITY SKY/WX TMP DP RH WIND PRES REMARKS EDENTON CLEAR 69 68 96 CALM 30.05S ELIZABETH CITY CLEAR 72 71 97 SW3 30.04F FOG KITTY HAWK SUNNY 73 70 89 CALM 30.04S MANTEO CLEAR 74 73 96 CALM 30.05S $$ NCZ045>047-081-094-103-104-020800- CENTRAL COAST CITY SKY/WX TMP DP RH WIND PRES REMARKS FRISCO PTCLDY 74 72 93 W5 30.05S SWANQUARTER N/A 73 N/A N/A NW3 30.00S $$ NCZ095-097-098-100-101-020800- SOUTHERN COAST CITY SKY/WX TMP DP RH WIND PRES REMARKS BEAUFORT CLEAR 76 75 97 W3 30.06F CEDAR ISLAND N/A 77 N/A N/A SW5 30.09S JACKSONVILLE CLEAR 74 72 93 CALM 30.05F PINEY ISLAND SUNNY N/A N/A N/A SW5 30.05F WILMINGTON CLEAR 75 72 90 CALM 30.06F $$ NCZ011>013-027>030-043-044-078>080-089-090>093-098-020800- COASTAL PLAIN CITY SKY/WX TMP DP RH WIND PRES REMARKS AHOSKIE FOG 67 66 98 CALM 30.05F VSB 1 CLINTON CLEAR 72 72 100 CALM 30.07S FOG ELIZABETHTOWN CLEAR 74 73 96 CALM 30.06S GOLDSBORO CLEAR 71 70 98 CALM 30.05S GREENVILLE CLEAR 70 70 100 CALM 30.07S FOG HAVELOCK CLEAR 73 72 96 SW5 30.07F KENANSVILLE N/A 70 69 98 CALM 30.07F KINSTON CLEAR 71 70 98 CALM 30.07S FOG NEW BERN CLEAR 73 71 93 CALM 30.07S FOG RICHLANDS MOCLDY 70 66 88 CALM 30.06S VSB 1/2 ROCKY MOUNT CLEAR 69 68 96 CALM 30.06F FOG WASHINGTON CLEAR 69 69 98 CALM 30.05F WHITEVILLE CLEAR 73 71 94 CALM 30.07S $$ AMZ130-135-150-152-154-156-158-170-250-252-270-ANZ085-086-088-633-658-670-020800- MARINE OBSERVATIONS STATION/POSITION TIME TEMP WIND PRES WAVE SWELL AIR SEA DIR/SP/G HT/PER HT/PER (UTC) (F) (DEG/KT/KT) (MB) (FT/S) (FT/S) CHESAPEAKE LIGHT 0700 77 220/ 7/ 8 1017.8 64 E VA BEACH 0650 77 78 290/ 4/ 6 1016.9 2/ 7 2/ 7 DUCK 0700 77 78 250/ 4/ 5 1016.6 2 E DUCK 0611 80 N/A 1/10 OREGON INLET 0700 76 83 320/ 1/ 2 1017.3 13E OREGON INLT 0700 80 N/A 2/11 HATTERAS CG 0700 80 82 290/ 6/ 7 1017.1 DIAMOND BUOY 0650 80 83 280/ 8/ 10 1017.7 2/ 9 2/ 9 CAPE LOOKOUT 0700 79 280/ 9/ 10 1017.4 BEAUFORT LAB 0700 78 80 260/ 3/ 5 1017.1 30 SE NEW RVR IN 0608 81 81 270/ 10/ 12 1018.3 30 SE NEW RVR IN 0625 81 N/A 2/ 7 27 SE WRIGHTSVLE 0700 78 82 270/ 10/ 12 N/A 5 SE WRIGHTSVLE 0608 80 82 260/ 10/ 12 1018.0 225 S CAPE HAT 0650 84 84 290/ 10/ 12 1017.8 3/ 5 3/ 5 41 SE CHARLESTON 0650 83 83 210/ 8/ 8 1017.7 3/ 7 2/ 7 $$

USA.gov is the U.S. government's official web portal to all federal, state and local government web resources and services.